Flight Track Log - Related Links

Times and Time Zones

All times are in EDT time to prevent confusion due to time zone crossing. See the SWA3675 flight status page for this flight to view local times or setup timezone preferences in your user account.

Time Position Orientation Groundspeed Altitude Reporting Facility
EDT Latitude Longitude Course Direction KTS MPH feet Rate Location/Type
Thu 09:01:04 PM 39.1500 -76.7333 184° South 220 253 3,500  Level Potomac TRACON
Thu 09:01:58 PM 39.1000 -76.6667 134° Southeast 266 306 5,200 2,526 Climbing Potomac TRACON
Thu 09:02:58 PM 39.0333 -76.6000 142° Southeast 311 358 8,300 3,100 Climbing Potomac TRACON
Thu 09:03:58 PM 38.9667 -76.5167 136° Southeast 338 389 11,400 2,850 Climbing Potomac TRACON
Thu 09:04:58 PM 38.8833 -76.4667 155° Southeast 378 435 14,000 1,250 Climbing Potomac TRACON
Thu 09:05:58 PM 38.8000 -76.5333 212° Southwest 357 411 13,900  Descending Potomac TRACON
Thu 09:06:00 PM 38.6723 -76.7078 184° South  Level FlightAware Approximate
Thu 09:07:30 PM 38.6653 -76.5808 195° South 382 440 14,000  Level Washington Center
Thu 09:08:30 PM 38.5614 -76.5581 170° South 368 423 14,000  Level Washington Center
Thu 09:09:31 PM 38.4572 -76.5331 169° South 368 423 14,000  Level Washington Center
Thu 09:10:29 PM 38.3553 -76.5078 169° South 373 429 14,000  Level Washington Center
Thu 09:11:30 PM 38.2389 -76.4747 167° South 383 441 14,000  Level Washington Center
Thu 09:12:31 PM 38.1367 -76.4497 169° South 383 441 14,000  Level Washington Center
Thu 09:13:29 PM 38.0306 -76.4247 169° South 383 441 14,000  Level Washington Center
Thu 09:14:29 PM 37.9264 -76.4000 169° South 393 452 14,000  Level Washington Center
Thu 09:15:31 PM 37.8183 -76.3725 169° South 393 452 14,000 -545 Level Washington Center
Thu 09:16:19 PM 37.7306 -76.3586 173° South 385 443 13,000 -1,541 Descending Washington Center
Thu 09:17:20 PM 37.6308 -76.3286 167° South 373 429 11,200 -1,357 Descending Washington Center
Thu 09:18:14 PM 37.5411 -76.3042 168° South 351 404 10,400 -1,148 Descending Washington Center
Thu 09:19:15 PM 37.4581 -76.2772 166° South 304 350 9,000 -1,342 Descending Washington Center
Thu 09:19:30 PM 37.4372 -76.2692 163° South 337 388 8,700 -1,364 Descending Washington Center
Thu 09:20:21 PM 37.3642 -76.2503 168° South 308 354 7,500 -1,393 Descending Washington Center
Thu 09:21:22 PM 37.2850 -76.2261 166° South 301 346 6,100 -1,328 Descending Washington Center
Thu 09:22:23 PM 37.2058 -76.2019 166° South 293 337 4,800 -1,062 Descending Washington Center
Thu 09:23:15 PM 37.1350 -76.1833 168° South 277 319 4,100 -716 Descending Washington Center
Thu 09:23:30 PM 37.1183 -76.1753 159° South 286 329 4,000 -1,180 Descending Washington Center
Thu 09:24:16 PM 37.0558 -76.1592 168° South 274 315 2,900 -1,279 Descending Washington Center
Thu 09:24:31 PM 37.0456 -76.1539 158° South 281 323 2,700 -1,368 Descending Washington Center
Thu 09:25:13 PM 36.9914 -76.1381 167° South 270 311 1,600 -824 Descending Washington Center
Thu 09:26:13 PM 36.9453 -76.1533 195° South 148 170 1,300 -645 Descending Washington Center
Thu 09:27:14 PM 36.9097 -76.1842 215° Southwest 141 162 300 -984 Descending Washington Center

Login

Don't have an account? Register now (free) for customized features, flight alerts, and more!